Find Starlink 36712

NORAD ID: 67700 Int'l Des: 2026-025 Owner: SPXS Country: US Constellation: starlink operational
LEOCIRCULARRETROGRADE

Live Position

Loading 3D Globe...

About Starlink 36712

Description loading...

Upcoming Passes

Passes for default location (London). Set your location on the main map for personalized predictions.

Altitude History

Loading altitude history...

Two-Line Element Set

1 67700U 26025H 26105.76626611 .00013137 00000-0 40849-3 0 9997
2 67700 97.2924 217.9129 0001194 130.7442 229.3905 15.33448407 11698
Epoch: Apr 15, 2026 • Age: 16 hours

Current Status

Altitude 468.1 km
Velocity 7.63 km/s
Sub-Earth Point 0.14°N, 31.52°E
Launch Date Feb 7, 2026
Age 0.1 years
Type internet

Technical Details

Classification Payload
Mass 575.00 kg
Dry Mass 530.00 kg
Total Mass 575.00 kg
Length 0.30 m
Diameter 4.10 m
Span 29.00 m
Shape Box + pan
Manufacturer SPXS
Bus Type Starlink V2MO
Phase Status In Orbit
Owner/State SPXS/US

Most Searched